Location: Birdaard
(53.2949°N, 5.8785°E)
Time: 10:02:00
(UTC+00:00)

Daily predictions for brighter satellites

Satellite Brightness Start Highest point End
(mag) Time Altitude Azimuth Time Altitude Azimuth Time Altitude Azimuth
Cosmos 2263 4.4 19:12:14 10° SW 19:17:51 78° WNW 19:23:30 10° NNE
Cosmos 2263 Rocket 4.0 19:14:08 10° NNW 19:18:11 20° NNE 19:22:11 10° ENE
CZ-4B R/B 3.6 19:13:35 10° S 19:19:13 74° WSW 19:24:47 10° NNW
CZ-4C R/B 4.3 19:17:38 10° NE 19:20:20 21° E 19:22:58 10° SE
Ariane Rocket 4.4 19:17:19 10° ESE 19:21:11 23° NE 19:25:05 10° N
Cosmos 1821 Rocket 4.0 19:15:40 10° N 19:21:53 90° ENE 19:28:00 10° S
NOSS 2-2 (C) 4.0 19:19:05 10° WSW 19:22:07 45° NW 19:25:22 10° NE
SL-27 R/B 3.3 19:20:07 10° NW 19:22:52 40° WSW 19:25:36 10° S
Genesis I 3.0 19:19:21 10° NW 19:22:59 75° NE 19:26:38 10° SE
Nadezhda 3 Rocket 4.2 19:17:48 10° SSE 19:23:42 51° E 19:29:41 10° NNE
BREEZE-M R/B 2.7 19:22:49 10° WSW 19:25:20 34° S 19:27:37 10° ESE
USA 186 2.4 19:22:40 10° S 19:25:38 52° W 19:28:35 10° NNW
USA 267 3.3 19:19:52 10° ENE 19:26:25 68° SSE 19:32:56 10° SW
SPOT 1/Viking Rocket 4.3 19:22:44 10° S 19:27:51 55° W 19:33:00 10° NNW
Okean O Rocket 1.8 19:27:26 10° SSE 19:31:48 78° WSW 19:36:13 10° NNW
Aureole 1 Rocket 4.4 19:30:26 10° NNE 19:32:10 14° NE 19:33:55 10° E
Cosmos 1486 Rocket 4.3 19:28:34 10° NNW 19:33:47 69° WSW 19:38:55 10° SSE
CZ-4 R/B 3.2 19:33:31 10° SSW 19:37:00 31° W 19:40:28 10° NNW
Cosmos 1536 Rocket 3.6 19:36:08 10° N 19:40:33 65° ENE 19:44:58 10° SSE
SJ 16-02 4.0 19:38:43 10° NW 19:41:34 17° W 19:44:24 10° SW
DELTA 2 DEB (DPAF) 4.0 19:40:38 10° NNE 19:44:54 88° W 19:49:08 10° SSW
Resurs 01 Rocket 2.3 19:42:16 10° S 19:46:37 57° W 19:51:00 10° NNW
IRS-1C Rocket 4.3 19:42:59 10° SE 19:48:10 59° ENE 19:53:23 10° N
CENTAUR R/B 3.7 19:41:19 10° NW 19:48:40 52° NNE 19:57:20 10° E
MOS 1 4.3 19:44:36 10° SSE 19:50:18 77° ENE 19:56:02 10° NNW
NOSS 3-1 (A) 3.2 19:47:39 10° SSW 19:52:34 55° SE 19:58:33 10° NE
ERS-1 Rocket 3.4 19:51:26 12° SE 19:55:47 46° ENE 20:00:34 10° N
SPOT 3 Rocket 4.3 19:55:09 14° SE 19:59:15 38° ENE 20:04:00 10° N
Cosmos 1934 Rocket 4.0 19:53:11 10° N 19:59:22 79° ENE 20:05:36 10° SSE
USA 229 DEB 4.2 19:56:28 10° S 20:01:47 31° ESE 20:07:34 10° ENE
USA 229 4.2 19:56:35 10° S 20:01:53 31° ESE 20:07:39 10° ENE
Cosmos 2151 Rocket 3.5 19:59:25 10° S 20:03:49 74° E 20:08:15 10° NNE
Cosmos 1339 Rocket 4.5 19:57:57 10° S 20:03:58 62° E 20:09:58 10° NNE
USA 234 4.2 19:59:04 10° SSE 20:05:05 38° SW 20:11:06 10° WNW
USA 281 3.6 20:00:03 10° SSE 20:06:34 65° WSW 20:13:08 10° NNW
ATLAS CENTAUR R/B 2.0 20:03:43 10° NW 20:07:15 39° NE 20:09:58 16° E
Cosmos 2227 Rocket 2.5 20:02:26 10° NNW 20:08:03 55° NE 20:12:21 17° SE
Iridium 2 3.0 20:08:54 10° N 20:11:52 84° W 20:14:16 14° S
NOSS 3-1 (C) 3.5 20:07:51 10° WSW 20:13:01 72° NW 20:19:26 10° NE
Cosmos 1980 Rocket 4.0 20:13:32 11° E 20:13:38 11° E 20:15:18 10° ENE
Cosmos 1892 Rocket 4.0 20:11:18 10° N 20:15:30 45° ENE 20:18:09 20° SE
SL-4 R/B 1.8 20:12:35 10° W 20:16:07 53° SSW 20:17:57 24° SE
Cosmos 371 Rocket 4.1 20:11:41 10° NW 20:16:18 48° WSW 20:20:54 10° S
Landsat 4 3.4 20:17:01 18° SSE 20:19:30 84° ENE 20:23:03 10° NNW
Cosmos 304 Rocket 4.4 20:15:30 10° NNW 20:20:10 54° WSW 20:24:31 12° S
MetOp-B 4.2 20:15:38 10° SSE 20:20:54 81° WSW 20:26:19 10° NNW
Cosmos 1697 Rocket 3.7 20:18:57 18° SE 20:21:47 26° ESE 20:26:23 10° NE
COSMOS 2455 2.9 20:17:29 10° NW 20:23:34 86° SW 20:27:59 19° SE
Okean 2 Rocket 3.3 20:21:24 10° SSW 20:25:54 75° WNW 20:30:25 10° N
ATLAS 3B R/B 2.9 20:19:19 10° SW 20:26:32 88° SE 20:34:17 10° NE
SWARM A 4.3 20:24:58 10° N 20:28:35 86° E 20:31:01 19° S
NOSS 8 (H) 4.3 20:26:49 10° NW 20:29:49 78° SW 20:31:30 29° SE
SPOT 5 3.3 20:26:04 11° S 20:31:08 71° WSW 20:36:21 10° NNW
MetOp-A 4.2 20:30:40 24° ESE 20:32:14 34° ENE 20:35:43 10° N
Cosmos 1898 Rocket 4.0 20:27:55 10° NNW 20:33:03 48° ENE 20:36:04 23° ESE
Cosmos 405 Rocket 3.2 20:33:26 28° SE 20:34:43 38° E 20:38:12 10° NNE
Cosmos 2297 Rocket 2.5 20:30:50 10° NW 20:36:27 64° WSW 20:40:35 18° SSE
CZ-4C R/B 2.9 20:29:55 10° NW 20:36:43 88° NE 20:42:37 21° SE
BlueWalker 3 2.2 20:35:21 10° SW 20:38:57 41° SSE 20:40:37 26° E
Spot 2 Rocket 3.4 20:36:24 21° SSE 20:39:48 79° ENE 20:44:52 10° NNW
ARIANE 5 R/B 4.4 20:39:49 16° E 20:41:45 20° ENE 20:45:01 10° N
Terra 1.8 20:40:08 22° SSE 20:43:14 90° ESE 20:48:00 10° NNW
Cosmos 1656 3.5 20:39:09 10° SSW 20:44:42 77° ESE 20:50:13 10° NE
Cosmos 332 Rocket 4.1 20:44:05 10° NNW 20:48:53 62° WSW 20:51:54 22° S
Cosmos 1455 Rocket 3.2 20:46:46 27° SSE 20:48:56 55° E 20:53:15 10° NNE
Cosmos 1459 Rocket 4.4 20:43:10 10° N 20:48:58 44° ENE 20:52:04 25° SE
Okean 1 Rocket 3.3 20:44:48 10° SSW 20:49:14 70° WNW 20:53:44 10° N
ATLAS 5 CENTAUR R/B 2.6 20:46:31 10° W 20:49:51 39° NNW 20:53:44 10° NE
Iridium 4 Rocket 4.0 20:44:39 10° S 20:50:14 73° W 20:56:07 10° N
USA 245 4.0 20:46:54 18° S 20:50:39 67° WSW 20:54:52 10° NNW
Cosmos 2219 3.3 20:45:50 10° NNW 20:51:31 65° NE 20:54:33 27° SE
Okean-O 4.5 20:49:52 10° SSW 20:53:36 27° W 20:57:22 10° NW
Helios 1B 4.5 20:52:48 10° NNE 20:57:08 71° ESE 20:59:33 25° S
Cosmos 1437 Rocket 2.8 20:54:46 10° NNW 20:58:42 76° WSW 21:00:22 33° S
Ariane Rocket 3.1 20:56:31 23° S 20:59:40 73° WSW 21:04:44 10° NNW
Cosmos 1763 Rocket 3.4 20:57:45 16° S 21:01:42 64° ESE 21:06:48 10° NNE
EP 1 4.3 20:59:52 10° NW 21:02:29 74° NE 21:02:36 72° ENE
Cosmos 2263 Rocket 2.5 20:57:47 10° NNW 21:03:22 56° NE 21:06:06 29° ESE
Cosmos 1544 4.3 21:03:39 10° NNE 21:05:38 22° NE 21:05:38 22° NE
Cosmos 44 3.4 21:01:07 10° SSW 21:06:30 72° SE 21:11:47 10° NE
Okean O Rocket 4.5 21:07:23 10° WSW 21:08:51 11° W 21:10:19 10° WNW
Cosmos 990 Rocket 4.5 21:04:03 10° NNW 21:09:06 54° WSW 21:11:52 25° S
USA 267 3.5 21:03:00 10° ENE 21:09:32 72° NNW 21:16:03 10° W
Cosmos 2082 3.9 21:04:14 10° NNW 21:09:51 61° NE 21:12:29 31° ESE
ARGOS Delta rocket 4.1 21:08:36 28° S 21:11:33 85° WSW 21:17:04 10° NNW
Cosmos 2173 Rocket 4.1 21:07:32 10° N 21:13:55 67° ENE 21:17:01 32° SSE
NOSS 3-2 (A) 4.1 21:07:45 10° NW 21:14:45 74° NE 21:19:58 25° ESE
Aureole 1 Rocket 2.7 21:12:45 10° NW 21:15:38 45° WSW 21:15:56 43° SW
Meteor 2-3 Rocket 4.0 21:11:48 10° N 21:17:24 57° ENE 21:19:41 34° SE
Cosmos 540 Rocket 3.3 21:18:45 28° S 21:21:25 69° ESE 21:26:31 10° NNE
Cosmos 1606 3.7 21:23:40 30° ENE 21:23:40 30° ENE 21:26:21 10° NNE
Cosmos 2058 2.9 21:21:19 10° NNW 21:25:21 69° W 21:26:27 45° SSW
MOS 1 Rocket 3.2 21:25:21 40° S 21:26:49 69° WSW 21:31:14 10° NNW
Meteor 2-15 4.5 21:21:19 10° N 21:27:28 68° ENE 21:29:58 37° SSE
Cosmos 1626 Rocket 3.5 21:23:34 10° N 21:28:00 81° ENE 21:29:06 50° SSE
Cosmos 372 Rocket 3.9 21:25:03 10° NNW 21:30:19 83° WSW 21:32:09 42° SSE
Cosmos 468 Rocket 3.9 21:31:31 28° SSW 21:34:16 80° ESE 21:39:32 10° NNE
ERS-1 Rocket 4.4 21:31:22 16° SSW 21:34:42 32° W 21:39:12 10° NNW
Cosmos 1802 Rocket 4.0 21:30:08 10° N 21:36:26 72° ENE 21:38:59 38° SSE
TIMED 4.4 21:32:55 10° NNW 21:37:17 88° WSW 21:38:04 60° SSE
SPOT 3 Rocket 4.5 21:35:45 23° SSW 21:38:36 42° W 21:43:32 10° NNW
CENTAUR R/B 3.2 21:32:03 10° NW 21:40:05 79° SW 21:44:47 33° SSE
SL-16 R/B 4.2 21:41:08 13° E 21:41:08 13° E 21:42:58 10° ENE
Landsat 5 3.6 21:37:34 10° NNE 21:41:51 74° WNW 21:43:12 41° SW
NOSS 3-1 (A) 4.3 21:38:19 10° WSW 21:43:33 49° NNW 21:50:01 10° NE
Cosmos 2016 Rocket 4.0 21:37:36 10° N 21:43:43 69° ENE 21:45:55 41° SE
Cosmos 1869 3.2 21:43:56 62° E 21:43:56 62° E 21:47:35 10° NNE
Cosmos 841 Rocket 3.6 21:43:35 48° SE 21:44:15 51° ESE 21:49:14 10° NNE
ATLAS CENTAUR R/B 2.0 21:41:32 10° WNW 21:45:02 37° SW 21:45:04 37° SW
Intercosmos 25 3.6 21:42:31 10° NNW 21:47:30 63° W 21:48:12 52° SW
Cosmos 1844 Rocket 3.8 21:42:33 10° NNW 21:47:42 35° NE 21:50:31 22° E
Uosat 12 SS-18 rocket 4.5 21:45:17 10° NW 21:49:59 57° NE 21:51:05 44° E
Cosmos 1544 Rocket 3.4 21:49:27 63° S 21:50:09 87° E 21:54:30 10° NNE
Cosmos 2100 Rocket 4.2 21:45:04 10° NNW 21:51:25 71° W 21:54:16 34° S
Cosmos 2227 Rocket 3.3 21:46:49 10° NW 21:51:54 34° WSW 21:54:10 25° SSW
USA 229 DEB 3.7 21:45:49 10° SW 21:52:06 79° NW 21:59:09 10° NE
USA 229 3.7 21:45:53 10° SW 21:52:12 79° NW 21:59:14 10° NE
Cosmos 1727 Rocket 4.2 21:49:08 23° SSW 21:53:09 70° WNW 21:59:25 10° N
H-2A R/B 2.5 21:54:16 54° ENE 21:54:16 54° ENE 21:57:57 10° N
SL-4 R/B 4.0 21:51:49 10° W 21:52:47 15° WSW 21:52:47 15° WSW
Cosmos 292 Rocket 4.3 21:51:15 10° NW 21:55:48 47° WSW 21:56:52 39° SW
Cosmos 1980 Rocket 2.2 21:55:14 48° SSE 21:56:26 59° ESE 22:02:00 10° NE
Cosmos 967 Rocket 4.4 21:51:58 10° NW 21:58:29 86° SW 22:00:44 44° SE
Cosmos 1937 Rocket 3.9 21:57:14 10° NNW 22:02:25 54° WSW 22:03:46 42° SSW
Okean 1-7 Rocket 3.6 21:58:55 10° NNW 22:03:28 73° W 22:04:09 60° SSW
Cosmos 1000 Rocket 4.5 22:01:36 34° SSW 22:04:27 80° WNW 22:10:38 10° N
Cosmos 1697 Rocket 2.9 22:00:32 15° SW 22:05:17 70° NW 22:10:59 10° NNE
Cosmos 2151 3.9 22:02:36 10° N 22:06:29 34° ENE 22:06:35 34° ENE
Cosmos 2123 Rocket 3.9 22:05:46 44° S 22:07:58 79° E 22:14:20 10° NNE
CZ-2C R/B 3.7 22:05:37 10° NNE 22:10:23 69° ESE 22:10:47 65° SE
Cosmos 1602 Rocket 3.6 22:06:33 10° NNW 22:10:52 66° W 22:11:18 61° SW
Cosmos 1758 Rocket 3.8 22:07:07 10° NNW 22:11:31 59° W 22:12:06 54° SW
Meteor 1-27 4.3 22:10:41 51° SE 22:11:34 58° E 22:17:01 10° NNE
Cosmos 2228 2.9 22:14:51 74° WSW 22:15:05 77° W 22:19:19 10° N
BlueWalker 3 3.4 22:13:11 10° W 22:15:07 28° W 22:15:07 28° W
ARIANE 5 R/B 2.6 22:17:17 65° SW 22:17:42 70° WSW 22:22:13 10° NNW
ATLAS 3B R/B 4.0 22:11:02 10° W 22:18:07 45° NNW 22:25:34 10° NE
Terra 4.2 22:18:51 10° WSW 22:21:32 15° W 22:24:14 10° NW
CZ-4C R/B 4.0 22:18:37 10° WNW 22:24:58 33° WSW 22:27:43 27° SSW
Cosmos 1076 Rocket 4.3 22:22:08 10° N 22:26:09 39° ENE 22:26:09 39° ENE
Cosmos 2227 4.1 22:20:43 10° NNW 22:26:29 84° ENE 22:27:45 57° SE
Cosmos 2369 3.6 22:27:50 56° S 22:29:02 79° ESE 22:34:43 10° NNE
Cosmos 1825 Rocket 3.4 22:25:36 10° NNW 22:30:01 86° WSW 22:30:02 86° WSW
Cosmos 1606 Rocket 3.7 22:30:33 60° ENE 22:30:33 60° ENE 22:34:28 10° NNE
Cosmos 1666 3.4 22:26:42 10° N 22:29:23 47° NNE 22:29:23 47° NNE
NOSS 3-2 (C) 3.9 22:23:47 10° NW 22:30:57 89° SW 22:34:32 39° SE
Lacrosse 4 Rocket 3.0 22:33:41 24° ENE 22:33:41 24° ENE 22:35:32 10° NE
H-2A R/B 3.9 22:28:33 10° NE 22:30:48 19° ENE 22:30:48 19° ENE
Cosmos 1725 Rocket 4.3 22:27:10 10° NNW 22:33:14 59° W 22:35:10 42° SSW
Cosmos 2233 Rocket 3.9 22:27:30 10° NNW 22:33:42 82° W 22:35:19 52° S
ATLAS 5 CENTAUR R/B 3.9 22:31:44 10° NW 22:34:48 22° N 22:38:19 10° NE
Cosmos 2219 4.4 22:30:31 10° NW 22:35:15 28° WSW 22:36:27 26° SW
ALOS 2 2.7 22:35:57 64° ENE 22:36:00 64° ENE 22:40:21 10° N
Cosmos 2061 Rocket 4.2 22:33:44 10° NNW 22:40:09 69° W 22:42:00 47° SSW
Cosmos 1862 3.9 22:37:13 10° NNW 22:40:37 48° WNW 22:40:37 48° WNW
Cosmos 1447 Rocket 4.5 22:42:34 54° SE 22:43:45 65° E 22:49:50 10° NNE
Cosmos 1814 Rocket 4.0 22:45:04 61° ESE 22:45:04 61° ESE 22:50:09 10° NNE
Cosmos 2058 Rocket 4.0 22:47:28 38° ENE 22:47:28 38° ENE 22:50:56 10° NNE
Cosmos 2263 Rocket 3.1 22:42:04 10° NW 22:47:02 33° WSW 22:47:47 32° WSW
Cosmos 1271 Rocket 3.3 22:46:07 10° NNW 22:49:07 53° NNW 22:49:07 53° NNW
Cosmos 2360 Rocket 3.6 22:51:06 23° E 22:51:06 23° E 22:54:54 10° NE
SL-19 R/B 4.3 22:45:17 10° NNE 22:50:55 68° ESE 22:51:47 59° SSE
Cosmos 1500 4.2 22:47:39 10° NNW 22:50:09 39° NW 22:50:09 39° NW
USA 267 3.5 22:45:49 10° E 22:52:19 68° N 22:58:50 10° WNW
Cosmos 2084 Rocket 3.9 22:49:43 10° NW 22:53:29 50° NNE 22:53:29 50° NNE
Cosmos 1602 4.4 22:53:56 10° N 22:56:45 49° N 22:56:45 49° N
Cosmos 1891 Rocket 4.5 22:51:42 10° N 22:57:54 75° ENE 22:59:17 55° SE
Cosmos 1606 4.4 22:57:45 24° WNW 22:57:57 25° WNW 23:01:00 10° NNW
Cosmos 1513 Rocket 4.5 22:52:13 10° N 22:58:19 71° ENE 22:59:38 54° SE
Cosmos 2278 Rocket 4.4 22:57:23 10° NNW 23:01:42 21° NNE 23:06:01 10° E
Lacrosse 5 3.7 23:05:57 19° E 23:05:57 19° E 23:07:41 10° ENE
Cosmos 2333 Rocket 3.6 23:03:47 24° E 23:03:47 24° E 23:07:50 10° NE
Cosmos 2322 Rocket 3.0 23:03:59 35° E 23:03:59 35° E 23:08:42 10° NE
Cosmos 2219 Rocket 4.1 23:05:42 16° E 23:05:42 16° E 23:08:40 10° ENE
Spot 4 4.2 23:09:20 51° WSW 23:09:25 51° W 23:14:07 10° NNW
Cosmos 1726 Rocket 3.7 23:10:52 68° NW 23:10:52 68° NW 23:14:55 10° N
Cosmos 1238 Rocket 3.8 23:19:41 40° N 23:19:41 40° N 23:22:16 10° N
Cosmos 1953 Rocket 4.3 23:15:21 10° NNW 23:19:07 44° WNW 23:19:07 44° WNW
Cosmos 1809 Rocket 4.4 23:21:05 60° SSE 23:22:10 74° E 23:28:22 10° NNE
Cosmos 1844 3.6 23:17:02 10° NW 23:22:49 78° WSW 23:23:27 69° S
Cosmos 1782 4.5 23:24:05 25° ENE 23:24:05 25° ENE 23:26:27 10° NNE
SL-16 R/B 2.1 23:22:57 67° SE 23:23:18 69° ESE 23:28:58 10° NE
CENTAUR R/B 4.3 23:23:20 10° WNW 23:30:08 28° WSW 23:31:56 26° SW
USA 238 DEB 3.8 23:23:28 10° NW 23:30:42 73° SW 23:32:58 49° SSE
USA 238 3.8 23:23:34 10° NW 23:30:48 74° SW 23:33:05 48° SSE
Cosmos 1125 Rocket 3.6 23:26:37 10° NNW 23:31:47 62° WSW 23:31:49 62° WSW
Cosmos 1844 Rocket 2.7 23:26:24 10° NW 23:31:56 61° WSW 23:32:08 60° SW
Cosmos 1812 3.7 23:37:39 42° N 23:37:39 42° N 23:40:11 10° N
Cosmos 2084 4.0 23:38:04 51° N 23:38:04 51° N 23:41:23 10° NE
PSLV R/B 3.7 23:34:30 10° NNE 23:39:04 81° ENE 23:39:04 81° ENE
Cosmos 1943 Rocket 4.4 23:34:51 10° NNW 23:39:17 23° NNE 23:43:43 10° E
Cosmos 1980 Rocket 3.5 23:36:55 17° WSW 23:40:45 36° NW 23:45:58 10° NNE
Cosmos 158 Rocket 4.3 23:41:25 48° E 23:41:25 48° E 23:45:57 10° NE
Cosmos 1072 Rocket 4.5 23:34:53 10° NNW 23:41:18 74° W 23:42:32 58° SSW
Meteor 2-14 Rocket 4.3 23:41:04 62° S 23:42:13 90° E 23:48:25 10° NNE
Cosmos 2151 4.4 23:39:48 10° NNW 23:42:57 29° WNW 23:42:57 29° WNW
Cosmos 2278 3.8 23:44:40 53° WSW 23:45:56 70° NW 23:51:38 10° NNE
Cosmos 1933 4.5 23:47:58 35° ENE 23:47:58 35° ENE 23:50:55 10° NNE
Timation 2 Rocket 4.0 23:40:39 10° NW 23:47:16 69° WSW 23:48:19 59° SSW
Cosmos 1816 Rocket 4.4 23:51:35 58° SSE 23:52:43 73° E 23:58:51 10° NNE
